Orbital Elements at Epoch 2459200.5 (2020-Dec-17.0) TDB
Reference: JPL 23 (heliocentric ecliptic J2000)
Element | Value | Uncertainty (1-sigma) | Units |
e | .1544931116009947 | 1.9762e-08 | |
a | 1.936204414530577 | 6.2599e-09 | au |
q | 1.637074169834166 | 3.8467e-08 | au |
i | 41.44403447251441 | 2.4346e-06 | deg |
node | 82.30110545653386 | 9.8204e-07 | deg |
peri | 184.6855707897592 | 2.5311e-06 | deg |
M | 106.423260883517 | 5.3687e-06 | deg |
tp | 2458909.589566865494 (2020-Mar-01.08956687) | 1.3353e-05 | TDB |
period | 984.0682860023376 2.69 | 4.7723e-06 1.307e-08 | d yr |
n | .3658282713920778 | 1.7741e-09 | deg/d |
Q | 2.235334659226988 | 7.227e-09 | au |
|
| | Orbit Determination Parameters
Additional Information
|